Regional Weather Roundup
Issued by NWS

Home | Current Version | Previous Version | Graphics & Text | Print | Product List | Glossary On
Versions: 1 2 3 4 5 6 7 8 9 10 11 12 13 14 15 16 17 18 19 20 21 22 23 24 25 26 27 28 29 30 31 32 33 34 35 36 37 38 39 40 41 42 43 44 45 46 47 48 49 50
000
ASUS45 KPSR 310100
RWRAZ

PRELIMINARY ARIZONA REGIONAL HOURLY WEATHER ROUNDUP
NATIONAL WEATHER SERVICE PHOENIX AZ
600 PM MST FRI JAN 30 2015

NOTE: FAIR INDICATES FEW OR NO CLOUDS BELOW 12,000 FEET WITH NO
SIGNIFICANT WEATHER AND/OR OBSTRUCTIONS TO VISIBILITY.

AZZ001>003-036-310200-
NORTHWEST ARIZONA

CITY           SKY/WX    TMP DP  RH WIND       PRES   REMARKS
KINGMAN        CLOUDY    48  45  89 N3        29.85S
$$

AZZ004>008-015-016-018-310200-
NORTH CENTRAL ARIZONA

CITY           SKY/WX    TMP DP  RH WIND       PRES   REMARKS
GRAND CANYON   CLOUDY    37  36  96 E3        29.91R
PRESCOTT       CLOUDY    46  45  96 S5        29.87S FOG
FLAGSTAFF      NOT AVBL
PAYSON         LGT RAIN  43  43 100 CALM      29.93R
$$

AZZ009>014-017-310200-
NORTHEAST ARIZONA

CITY           SKY/WX    TMP DP  RH WIND       PRES   REMARKS
WINSLOW        NOT AVBL
SAINT JOHNS    LGT RAIN  47  39  74 E3        29.89S
WINDOW ROCK    LGT SNOW  34  31  88 CALM      29.98S FOG
SHOW LOW       CLOUDY    39  36  87 S9        29.93R WCI  33
$$

AZZ023-310200-
GREATER PHOENIX AREA

CITY           SKY/WX    TMP DP  RH WIND       PRES   REMARKS
PHOENIX        CLOUDY    57  55  93 E10       29.82S
GLENDALE       MOCLDY    61  59  94 CALM      29.84R
LUKE AFB       CLOUDY    60  56  85 CALM      29.81S
DEER VALLEY    LGT RAIN  55  54  96 CALM      29.84R
SCOTTSDALE     CLOUDY    56  52  86 CALM      29.84F
MESA-GATEWAY   CLOUDY    55  55 100 S5        29.86R
$$

AZZ027-028-310200-
SOUTHWEST MARICOPA COUNTY AND PINAL COUNTY

CITY           SKY/WX    TMP DP  RH WIND       PRES   REMARKS
CASA GRANDE    CLOUDY    57  54  88 CALM      29.84S
GILA BEND      MOCLDY    63  55  77 SE2       29.82S
$$

AZZ503-504-507>509-310200-
SOUTHEAST ARIZONA

CITY           SKY/WX    TMP DP  RH WIND       PRES   REMARKS
TUCSON         LGT RAIN  56  53  90 W5        29.87S
DAVIS-MONTHAN  RAIN      55  55  99 W2        29.85S FOG
NOGALES        RAIN      51  48  89 SE5       29.89R
SIERRA VISTA   CLOUDY    52  50  93 W20       29.90R
DOUGLAS        CLOUDY    50  48  93 SE12      29.90F
SAFFORD        LGT RAIN  48  46  93 SE6       29.91F FOG
$$

AZZ020-021-025-026-031-310200-
SOUTHWEST ARIZONA

CITY           SKY/WX    TMP DP  RH WIND       PRES   REMARKS
YUMA           MOCLDY    67  52  58 W5        29.82S
$$

CAZ031-033-041-043-047-048-061-310200-
SOUTHERN CALIFORNIA

CITY           SKY/WX    TMP DP  RH WIND       PRES   REMARKS
DOWNTOWN L.A.  CLOUDY    63  53  70 NE3       29.84S
L.A. AIRPORT   CLOUDY    62  53  72 VRB6      29.85S
SAN DIEGO      CLOUDY    63  49  60 CALM      29.88S
BURBANK        CLOUDY    60  53  77 SW3       29.84S
ONTARIO        MOCLDY    63  47  55 W5        29.85R
RIVERSIDE      CLOUDY    65  47  52 W6        29.85R
PALM SPRINGS   MOCLDY    65  49  56 NE3       29.85S
EL CENTRO NAS  MOCLDY    65  49  56 N6        29.82S
IMPERIAL       CLOUDY    65  49  56 N8        29.82R
BLYTHE         CLOUDY    63  53  70 N10       29.82S
$$

NVZ020-UTZ003-310200-
SOUTHERN NEVADA-UTAH

CITY           SKY/WX    TMP DP  RH WIND       PRES   REMARKS
LAS VEGAS      NOT AVBL
SALT LAKE CITY CLOUDY    41  36  82 W7        29.99S
$$

NMZ009-TXZ055-310200-
NEW MEXICO-WEST TEXAS

CITY           SKY/WX    TMP DP  RH WIND       PRES   REMARKS
ALBUQUERQUE    LGT RAIN  37  31  78 E9        30.08S WCI  30
EL PASO        LGT RAIN  46  41  82 E6        30.05R
$$


........................KEY........................
SKY/WX - SKY CONDITION/WEATHER
TMP    - TEMPERATURE IN FAHRENHEIT
DP     - DEW POINT IN FAHRENHEIT
RH     - RELATIVE HUMIDITY IN PERCENT
WIND   - DIRECTION AND SPEED IN MILES PER HOUR (MPH)
VRB    - VARIABLE WIND DIRECTION
PRES   - MEAN SEA LEVEL PRESSURE IN INCHES OF MERCURY
         F - FALLING PRESSURE   R - RISING PRESSURE
         S - STEADY PRESSURE
VSB    - VISIBILITY IN MILES
HX     - HEAT INDEX IN FAHRENHEIT
WCI    - WIND CHILL INDEX IN FAHRENHEIT
TC     - TEMPERATURE IN CELSIUS WHICH IS ALSO KNOWN AS
         TEMPERATURE IN CENTIGRADE
AFB    - AIR FORCE BASE
         LUKE AFB IS LUKE AIR FORCE BASE
         DAVIS-MONTHAN IS DAVIS-MONTHAN AIR FORCE BASE
NAS    - NAVAL AIR STATION
         EL CENTRO NAS IS EL CENTRO NAVAL AIR STATION
N/A    - NOT AVAILABLE



USA.gov is the U.S. government's official web portal to all federal, state and local government web resources and services.